• Em Portugal
  • Lista de países
  • Para 7 dias
  • Temperatura da água
  • Mapas de satélite
  • Mapa do tempo
  • Widgets de tempo
  • user-avatar
    Iniciar Sessão

    Previsão horária em Volnovaha

    Hoje, 18 Outubro, Quinta-feira

    Tempo Temperatura Precipitação Vento Pressão Humidade
    00:00 +14°C° 0 mm 3 m/s 744 mmHg 63%
    01:00 +13°C° 0 mm 3 m/s 744 mmHg 64%
    02:00 +13°C° 0 mm 3 m/s 744 mmHg 66%
    03:00 +12°C° 0 mm 3 m/s 743 mmHg 67%
    04:00 +12°C° 0 mm 3 m/s 743 mmHg 68%
    05:00 +12°C° 0 mm 3 m/s 743 mmHg 69%
    06:00 +13°C° 0 mm 4 m/s 743 mmHg 64%
    07:00 +14°C° 0 mm 4 m/s 743 mmHg 60%
    08:00 +15°C° 0 mm 4 m/s 743 mmHg 56%
    09:00 +17°C° 0 mm 5 m/s 743 mmHg 50%
    10:00 +19°C° 0 mm 5 m/s 743 mmHg 44%
    11:00 +21°C° 0 mm 5 m/s 743 mmHg 38%
    12:00 +22°C° 0 mm 5 m/s 743 mmHg 36%
    13:00 +22°C° 0 mm 5 m/s 743 mmHg 34%
    14:00 +23°C° 0 mm 5 m/s 742 mmHg 33%
    15:00 +22°C° 0 mm 5 m/s 742 mmHg 36%
    16:00 +20°C° 0 mm 4 m/s 742 mmHg 39%
    17:00 +19°C° 0 mm 3 m/s 741 mmHg 43%
    18:00 +18°C° 0 mm 4 m/s 741 mmHg 45%
    19:00 +17°C° 0 mm 4 m/s 741 mmHg 47%
    20:00 +17°C° 0 mm 4 m/s 741 mmHg 49%
    21:00 +15°C° 0 mm 4 m/s 741 mmHg 52%
    22:00 +15°C° 0 mm 4 m/s 741 mmHg 54%
    23:00 +14°C° 0 mm 4 m/s 741 mmHg 56%

    Amanhã, 19 Outubro, Sexta-feira

    Tempo Temperatura Precipitação Vento Pressão Humidade
    00:00 +14°C° 0 mm 4 m/s 741 mmHg 58%
    01:00 +13°C° 0 mm 4 m/s 741 mmHg 60%
    02:00 +13°C° 0 mm 4 m/s 741 mmHg 62%
    03:00 +12°C° 0 mm 4 m/s 740 mmHg 64%
    04:00 +12°C° 0 mm 4 m/s 740 mmHg 66%
    05:00 +12°C° 0 mm 4 m/s 740 mmHg 68%
    06:00 +12°C° 0 mm 4 m/s 740 mmHg 66%
    07:00 +13°C° 0 mm 5 m/s 740 mmHg 63%
    08:00 +14°C° 0 mm 5 m/s 740 mmHg 61%
    09:00 +16°C° 0 mm 5 m/s 740 mmHg 56%
    10:00 +17°C° 0 mm 5 m/s 740 mmHg 51%
    11:00 +20°C° 0 mm 5 m/s 740 mmHg 47%
    12:00 +20°C° 0 mm 5 m/s 739 mmHg 45%
    13:00 +21°C° 0 mm 4 m/s 739 mmHg 43%
    14:00 +21°C° 0 mm 4 m/s 739 mmHg 41%
    15:00 +20°C° 0 mm 3 m/s 739 mmHg 46%
    16:00 +19°C° 0 mm 3 m/s 738 mmHg 50%
    17:00 +17°C° 0 mm 2 m/s 738 mmHg 54%
    18:00 +17°C° 0 mm 2 m/s 738 mmHg 56%
    19:00 +16°C° 0 mm 2 m/s 738 mmHg 59%
    20:00 +16°C° 0 mm 2 m/s 738 mmHg 62%
    21:00 +15°C° 0 mm 2 m/s 738 mmHg 65%
    22:00 +15°C° 0 mm 2 m/s 737 mmHg 67%
    23:00 +14°C° 0 mm 2 m/s 737 mmHg 70%

    Depois de amanhã, 20 Outubro, Sábado

    Tempo Temperatura Precipitação Vento Pressão Humidade
    00:00 +14°C° 0 mm 2 m/s 737 mmHg 72%
    01:00 +14°C° 0 mm 2 m/s 737 mmHg 74%
    02:00 +13°C° 0 mm 2 m/s 737 mmHg 76%
    03:00 +13°C° 0 mm 2 m/s 737 mmHg 77%
    04:00 +13°C° 0 mm 2 m/s 737 mmHg 79%
    05:00 +12°C° 0 mm 2 m/s 737 mmHg 81%
    06:00 +13°C° 0 mm 2 m/s 737 mmHg 76%
    07:00 +14°C° 0 mm 2 m/s 737 mmHg 72%
    08:00 +15°C° 0 mm 2 m/s 738 mmHg 68%
    09:00 +17°C° 0 mm 2 m/s 738 mmHg 62%
    10:00 +18°C° 0 mm 2 m/s 738 mmHg 56%
    11:00 +20°C° 0 mm 2 m/s 738 mmHg 50%
    12:00 +21°C° 0 mm 2 m/s 738 mmHg 47%
    13:00 +21°C° 0 mm 3 m/s 738 mmHg 45%
    14:00 +22°C° 0 mm 3 m/s 738 mmHg 42%
    15:00 +20°C° 0 mm 3 m/s 738 mmHg 45%
    16:00 +19°C° 0 mm 3 m/s 738 mmHg 49%
    17:00 +18°C° 0 mm 2 m/s 738 mmHg 52%
    18:00 +17°C° 0 mm 2 m/s 738 mmHg 56%
    19:00 +16°C° 0 mm 2 m/s 738 mmHg 59%
    20:00 +16°C° 0 mm 2 m/s 738 mmHg 62%
    21:00 +15°C° 0 mm 2 m/s 738 mmHg 65%
    22:00 +15°C° 0 mm 2 m/s 738 mmHg 69%
    23:00 +14°C° 0 mm 2 m/s 738 mmHg 72%

    21 Outubro, Domingo

    Tempo Temperatura Precipitação Vento Pressão Humidade
    00:00 +14°C° 0 mm 2 m/s 738 mmHg 75%
    01:00 +13°C° 0 mm 2 m/s 738 mmHg 78%
    02:00 +13°C° 0 mm 2 m/s 738 mmHg 81%
    03:00 +12°C° 0 mm 2 m/s 738 mmHg 83%
    04:00 +12°C° 0 mm 2 m/s 738 mmHg 86%
    05:00 +12°C° 0 mm 2 m/s 738 mmHg 88%
    06:00 +12°C° 0 mm 2 m/s 738 mmHg 84%
    07:00 +12°C° 0 mm 3 m/s 738 mmHg 80%
    08:00 +13°C° 0 mm 3 m/s 738 mmHg 76%
    09:00 +14°C° 0 mm 3 m/s 738 mmHg 70%
    10:00 +17°C° 0 mm 3 m/s 738 mmHg 63%
    11:00 +18°C° 0 mm 3 m/s 738 mmHg 56%
    12:00 +18°C° 0 mm 3 m/s 738 mmHg 54%
    13:00 +19°C° 0 mm 3 m/s 738 mmHg 51%
    14:00 +19°C° 0 mm 3 m/s 737 mmHg 49%
    15:00 +18°C° 0 mm 3 m/s 737 mmHg 51%
    16:00 +18°C° 0 mm 3 m/s 738 mmHg 53%
    17:00 +17°C° 0 mm 3 m/s 738 mmHg 55%
    18:00 +16°C° 0 mm 3 m/s 738 mmHg 58%
    19:00 +16°C° 0 mm 3 m/s 738 mmHg 60%
    20:00 +14°C° 0 mm 3 m/s 738 mmHg 63%
    21:00 +14°C° 0 mm 3 m/s 738 mmHg 66%
    22:00 +13°C° 0 mm 3 m/s 738 mmHg 70%
    23:00 +13°C° 0 mm 3 m/s 738 mmHg 73%

    22 Outubro, Segunda-feira

    Tempo Temperatura Precipitação Vento Pressão Humidade
    00:00 +12°C° 0.1 mm 3 m/s 738 mmHg 76%
    01:00 +12°C° 0.1 mm 4 m/s 738 mmHg 78%
    02:00 +12°C° 0.1 mm 4 m/s 738 mmHg 81%
    03:00 +12°C° 0.1 mm 4 m/s 738 mmHg 81%
    04:00 +12°C° 0.1 mm 4 m/s 738 mmHg 82%
    05:00 +12°C° 0.1 mm 5 m/s 738 mmHg 83%
    06:00 +12°C° 0.1 mm 4 m/s 738 mmHg 81%
    07:00 +12°C° 0.1 mm 4 m/s 738 mmHg 80%
    08:00 +13°C° 0.1 mm 4 m/s 738 mmHg 79%
    09:00 +13°C° 0 mm 4 m/s 738 mmHg 77%
    10:00 +14°C° 0 mm 4 m/s 738 mmHg 75%
    11:00 +15°C° 0 mm 4 m/s 738 mmHg 73%
    12:00 +17°C° 0 mm 4 m/s 738 mmHg 69%
    13:00 +17°C° 0 mm 5 m/s 738 mmHg 66%
    14:00 +19°C° 0 mm 5 m/s 738 mmHg 62%
    15:00 +17°C° 0 mm 5 m/s 738 mmHg 63%
    16:00 +17°C° 0 mm 4 m/s 738 mmHg 64%
    17:00 +17°C° 0 mm 4 m/s 738 mmHg 65%
    18:00 +16°C° 0.1 mm 5 m/s 738 mmHg 62%
    19:00 +16°C° 0.1 mm 5 m/s 738 mmHg 60%
    20:00 +16°C° 0.1 mm 6 m/s 738 mmHg 58%
    21:00 +15°C° 0 mm 5 m/s 737 mmHg 56%
    22:00 +15°C° 0 mm 5 m/s 737 mmHg 54%
    23:00 +15°C° 0 mm 5 m/s 737 mmHg 52%

    23 Outubro, Terça-feira

    Tempo Temperatura Precipitação Vento Pressão Humidade
    00:00 +15°C° 0 mm 5 m/s 737 mmHg 51%
    01:00 +14°C° 0 mm 5 m/s 736 mmHg 50%
    02:00 +14°C° 0 mm 4 m/s 736 mmHg 49%
    03:00 +13°C° 0.1 mm 4 m/s 736 mmHg 49%
    04:00 +13°C° 0.1 mm 4 m/s 735 mmHg 49%
    05:00 +13°C° 0.1 mm 4 m/s 735 mmHg 49%
    06:00 +13°C° 0 mm 5 m/s 735 mmHg 50%
    07:00 +14°C° 0 mm 5 m/s 735 mmHg 51%
    08:00 +14°C° 0 mm 5 m/s 734 mmHg 53%
    09:00 +15°C° 0.1 mm 5 m/s 734 mmHg 59%
    10:00 +15°C° 0.1 mm 5 m/s 734 mmHg 66%
    11:00 +16°C° 0.1 mm 5 m/s 734 mmHg 73%
    12:00 +16°C° 0.1 mm 5 m/s 733 mmHg 73%
    13:00 +16°C° 0.1 mm 6 m/s 733 mmHg 74%
    14:00 +16°C° 0.1 mm 6 m/s 733 mmHg 74%
    15:00 +15°C° 0 mm 5 m/s 732 mmHg 76%
    16:00 +15°C° 0 mm 5 m/s 732 mmHg 78%
    17:00 +14°C° 0 mm 4 m/s 732 mmHg 80%
    18:00 +13°C° 0 mm 4 m/s 732 mmHg 84%
    19:00 +13°C° 0 mm 4 m/s 733 mmHg 88%
    20:00 +12°C° 0 mm 3 m/s 733 mmHg 92%
    21:00 +12°C° 0 mm 3 m/s 733 mmHg 92%
    22:00 +11°C° 0 mm 3 m/s 733 mmHg 92%
    23:00 +12°C° 0 mm 2 m/s 733 mmHg 93%
    Mostrar mais